This demonstration page uses our WeatherBlox Daily Observations layout. Learn more.

Left ArrowRight Arrow

41.86663, -103.66717

Hourly Observations for October 27, 2018

Temp ( °F °C ) Dew Point ( °F °C ) Humidity (%) Winds ( mph kmh ) Pressure ( in mb ) Visibility ( mi km ) Precip ( " mm )
12:53 am 00:53 Clear 39 3.9 33 0.6 79 79 Calm 29.98 1015 10 16 0.00 0.00
1:53 am 01:53 Clear 38 3.3 33 0.6 83 83 N 7 11 29.96 1015 10 16 0.00 0.00
2:53 am 02:53 Clear 40 4.4 33 0.6 77 77 W 5 7 29.95 1014 10 16 0.00 0.00
3:53 am 03:53 Clear 36 2.2 32 0 86 86 NNW 5 7 29.94 1014 10 16 0.00 0.00
4:53 am 04:53 Clear 35 1.7 31 -0.6 85 85 NNE 3 6 29.93 1014 10 16 0.00 0.00
5:53 am 05:53 Clear 35 1.7 31 -0.6 85 85 ENE 3 6 29.94 1014 10 16 0.00 0.00
6:53 am 06:53 Clear 37 2.8 32 0 82 82 NNE 5 7 29.94 1014 10 16 0.00 0.00
7:53 am 07:53 Sunny 38 3.3 34 1.1 86 86 Calm 29.94 1014 10 16 0.00 0.00
8:53 am 08:53 Sunny 50 10 40 4.4 68 68 Calm 29.92 1013 10 16 0.00 0.00
9:53 am 09:53 Sunny 61 16.1 40 4.4 46 46 W 6 9 29.88 1012 10 16 0.00 0.00
10:53 am 10:53 Sunny 69 20.6 40 4.4 35 35 undefined N/A 29.84 1011 10 16 0.00 0.00
11:53 am 11:53 Sunny 75 23.9 39 3.9 27 27 WNW 16 26 29.80 1009 10 16 0.00 0.00
12:53 pm 12:53 Sunny 77 25 38 3.3 24 24 W 21 33 29.79 1009 10 16 0.00 0.00
1:53 pm 13:53 Sunny 77 25 37 2.8 24 24 WNW 26 43 29.78 1009 10 16 0.00 0.00
2:53 pm 14:53 Sunny 73 22.8 41 5 32 32 N 29 46 29.81 1010 10 16 0.00 0.00
3:00 pm 15:00 Sunny 73 22.8 40 4.4 30 30 N 29 46 29.68 1005 10 16 0.00 0.00
3:53 pm 15:53 Sunny 66 18.9 41 5 40 40 N 30 48 29.90 1013 10 16 0.00 0.00
4:53 pm 16:53 Sunny 63 17.2 42 5.6 47 47 N 18 30 29.98 1015 10 16 0.00 0.00
5:53 pm 17:53 Sunny 53 11.7 41 5 64 64 NW 8 13 30.07 1018 10 16 0.00 0.00
6:53 pm 18:53 Clear 49 9.4 39 3.9 69 69 NW 7 11 30.12 1020 10 16 0.00 0.00
7:53 pm 19:53 Mostly Cloudy 49 9.4 38 3.3 66 66 WNW 7 11 30.14 1021 10 16 0.00 0.00
8:53 pm 20:53 Clear 46 7.8 37 2.8 71 71 W 8 13 30.13 1020 10 16 0.00 0.00
9:53 pm 21:53 Clear 42 5.6 36 2.2 79 79 WNW 7 11 30.12 1020 10 16 0.00 0.00
10:53 pm 22:53 Clear 39 3.9 36 2.2 89 89 NW 6 9 30.11 1020 10 16 0.00 0.00
11:53 pm 23:53 Clear 39 3.9 36 2.2 89 89 NW 6 9 30.10 1019 10 16 0.00 0.00

Powered by AerisWeather